Weather History for Tampa, FL

Change the Weather History Date:

Tuesday, January 1, 2013

  Actual Average Record
Temperature  
Mean Temperature 65 °F 61 °F  
Max Temperature 75 °F 70 °F 86 °F (1991)
Min Temperature 55 °F 52 °F 26 °F (1984)
Degree Days  
Heating Degree Days 0 6  
Month to date heating degree days 0 6  
Since 1 July heating degree days 126 189  
Cooling Degree Days 0 2  
Month to date cooling degree days 0 2  
Year to date cooling degree days 0 2  
Growing Degree Days 15 (Base 50)    
Moisture  
Dew Point 56 °F    
Average Humidity 69    
Maximum Humidity 87    
Minimum Humidity 50    
Precipitation  
Precipitation 0.00 in 0.07 in 3.40 in (1996)
Month to date precipitation 0.00 0.07  
Year to date precipitation 0.00 0.07  
Sea Level Pressure  
Sea Level Pressure 30.13 in    
Wind  
Wind Speed 5 mph (South)    
Max Wind Speed 14 mph    
Max Gust Speed 22 mph    
Visibility 9 miles    
Events      
T = Trace of Precipitation, MM = Missing Value Source: NWS Daily Summary

Daily Weather History Graph

Daily Weather History Graph

Search for Another Location

Airport:

Trip Planner

Search our weather history database for the weather conditions in past years. The results will help you decide how hot, cold, wet, or windy it might be!

Date:

Astronomy

Jan. 01, 2013 Rise Set
Actual Time 7:21 AM EST 5:46 PM EST
Civil Twilight 6:55 AM EST 6:12 PM EST
Nautical Twilight 6:26 AM EST 6:41 PM EST
Astronomical Twilight 5:58 AM EST 7:09 PM EST
Moon 9:51 PM EST (1/1) 9:54 AM EST (1/1)
Length of Visible Light 11h 16m
Length of Day
10h 24m
Waning Gibbous, 83% of the Moon is Illuminated
Jan 1
Waning Gibbous
Jan 4
Last Quarter
Jan 11
New
Jan 18
First Quarter
Jan 26
Full

Hourly Weather History & Observations

Time (EST) Temp. Dew Point Humidity Pressure Visibility Wind Dir Wind Speed Gust Speed Precip Events Conditions
12:53 AM 55.9 °F 51.1 °F 84% 30.23 in 5.0 mi Calm Calm - N/A   Haze
1:53 AM 55.9 °F 52.0 °F 87% 30.22 in 3.0 mi Calm Calm - N/A   Overcast
2:53 AM 59.0 °F 53.1 °F 81% 30.19 in 3.0 mi Calm Calm - N/A   Haze
3:53 AM 60.1 °F 55.0 °F 83% 30.17 in 8.0 mi Variable 3.5 mph - N/A   Overcast
4:53 AM 60.1 °F 55.0 °F 83% 30.16 in 8.0 mi Calm Calm - N/A   Partly Cloudy
5:53 AM 57.9 °F 54.0 °F 87% 30.16 in 7.0 mi Calm Calm - N/A   Clear
6:53 AM 59.0 °F 55.0 °F 87% 30.16 in 10.0 mi ESE 3.5 mph - N/A   Scattered Clouds
7:53 AM 57.0 °F 54.0 °F 89% 30.17 in 6.0 mi Calm Calm - N/A   Mostly Cloudy
8:53 AM 63.0 °F 55.9 °F 78% 30.17 in 7.0 mi SE 3.5 mph - N/A   Scattered Clouds
9:53 AM 69.1 °F 55.9 °F 63% 30.18 in 10.0 mi SSE 4.6 mph - N/A   Clear
10:53 AM 72.0 °F 55.9 °F 57% 30.18 in 10.0 mi Variable 5.8 mph - N/A   Clear
11:53 AM 75.0 °F 55.9 °F 51% 30.15 in 10.0 mi South 11.5 mph - N/A   Partly Cloudy
12:53 PM 75.0 °F 55.9 °F 51% 30.12 in 10.0 mi South 11.5 mph - N/A   Partly Cloudy
1:53 PM 75.0 °F 55.9 °F 51% 30.09 in 10.0 mi South 11.5 mph - N/A   Partly Cloudy
2:53 PM 73.0 °F 57.0 °F 57% 30.07 in 10.0 mi South 11.5 mph - N/A   Clear
3:53 PM 73.0 °F 57.0 °F 57% 30.08 in 10.0 mi SSW 10.4 mph - N/A   Partly Cloudy
4:53 PM 72.0 °F 57.0 °F 59% 30.08 in 10.0 mi SSW 4.6 mph - N/A   Clear
5:53 PM 69.1 °F 57.0 °F 65% 30.08 in 10.0 mi South 3.5 mph - N/A   Mostly Cloudy
6:53 PM 70.0 °F 57.0 °F 63% 30.08 in 10.0 mi South 4.6 mph - N/A   Mostly Cloudy
7:53 PM 66.9 °F 57.0 °F 70% 30.08 in 10.0 mi South 5.8 mph - N/A   Scattered Clouds
8:53 PM 70.0 °F 57.0 °F 63% 30.09 in 10.0 mi South 6.9 mph - N/A   Partly Cloudy
9:53 PM 70.0 °F 57.0 °F 63% 30.07 in 10.0 mi South 8.1 mph - N/A   Partly Cloudy
10:53 PM 66.9 °F 57.9 °F 73% 30.07 in 10.0 mi SSE 3.5 mph - N/A   Partly Cloudy
11:53 PM 66.9 °F 57.9 °F 73% 30.06 in 10.0 mi South 5.8 mph - N/A   Clear